Tracking 35237 objects as of 4-Sep-2026
HD Live streaming from Space Station
objects crossing your sky now

COSMOS 1211


COSMOS 1211 is no longer on orbit


NORAD ID: 11982
Int'l Code: 1980-077A
Launch date: September 23, 1980
Source: Commonwealth of Independent States (former USSR) (CIS)
Launch site: PLESETSK MISSILE AND SPACE COMPLEX (PKMTR)
Decay date: 1980-10-04
Your satellite tracking list
Your tracking list is empty




NASA's NSSDC Master Catalog

Two Line Element Set (TLE):
1 11982U 80077  A 80278.17542210  .00402994 -10062-4 +20006-4 0  9994
2 11982 082.3512 173.8387 0014115 056.8210 303.5747 16.24334784001748
Source of the keplerian elements: AFSPC